This is the latest recevied weather packets stored in our database for station/object W0JRT-6. If no packets are shown the sender has not sent any weather packets the latest 10 day(s).
| Time | Temp. | Humidity | Pressure | Rain* | Wind** | Luminosity | Snow |
|---|---|---|---|---|---|---|---|
| 1777784052 | 6.11° C | 88% | 1017 hPa | 0 mm | - | - | - |
| 1777783802 | 6.11° C | 88% | 1017 hPa | 0 mm | - | - | - |
| 1777782601 | 6.11° C | 85% | 1017.1 hPa | 0 mm | - | - | - |
| 1777782003 | 6.11° C | 85% | 1017.1 hPa | 0 mm | - | - | - |
| 1777780801 | 6.67° C | 83% | 1017.1 hPa | 0 mm | - | - | - |
| 1777780453 | 7.22° C | 83% | 1017 hPa | 0 mm | - | - | - |
| 1777780198 | 7.22° C | 83% | 1017 hPa | 0 mm | - | - | - |
| 1777779005 | 7.78° C | 80% | 1016.8 hPa | 0 mm | - | - | - |
| 1777778407 | 7.78° C | 80% | 1016.7 hPa | 0 mm | - | - | - |
| 1777777903 | 7.78° C | 82% | 1016.6 hPa | 0 mm | - | - | - |
| 1777777807 | 7.78° C | 82% | 1016.6 hPa | 0 mm | - | - | - |
| 1777777203 | 8.33° C | 80% | 1016.6 hPa | 0 mm | - | - | - |
| 1777776600 | 8.33° C | 77% | 1016.4 hPa | 0 mm | - | - | - |
| 1777775399 | 8.89° C | 74% | 1016 hPa | 0 mm | - | - | - |
| 1777774804 | 9.44° C | 75% | 1015.8 hPa | 0 mm | - | - | - |
| 1777773598 | 10.56° C | 70% | 1015.3 hPa | 0 mm | - | - | - |
| 1777773012 | 11.11° C | 67% | 1014.9 hPa | 0 mm | - | - | - |
| 1777772409 | 11.67° C | 65% | 1014.6 hPa | 0 mm | - | - | - |
| 1777771199 | 13.33° C | 55% | 1014 hPa | 0 mm | - | - | - |
| 1777770607 | 14.44° C | 52% | 1013.6 hPa | 0 mm | - | - | - |
| 1777770000 | 15.56° C | 45% | 1013.3 hPa | 0 mm | - | - | - |
| 1777769398 | 17.22° C | 46% | 1013.2 hPa | 0 mm | - | - | - |
| 1777767608 | 18.33° C | 32% | 1013 hPa | 0 mm | - | - | - |
| 1777767001 | 17.78° C | 33% | 1013.1 hPa | 0 mm | - | - | - |
| 1777765845 | 18.33° C | 31% | 1013.1 hPa | 0 mm | - | - | - |
* Rain since midnight (hover to see other rain measurements)
** Current wind speed in m/s (hover to see current wind gust speed)